Wind_Speed
18 17 17 17 16 16 16 16 16 16 16 16 16 15 15 15 15 14 13 12 12 11 11 11 11 10 10 10 10 11 12 12 13 14 14 14 13 12 12 13 13 12 12 11 11 11 10 11 12 12 13 14 14 15 15 15 14 14 13 13 13 13 14 13 13 12 12 12 13 13 14 15 15 16 16 16 17 17 18 19 19 19 20 21 21 21 21 22
20 20 20 19 19 18 18 18 18 18 17 17 17 17 17 17 16 16 15 15 14 13 12 12 12 12 11 11 11 11 11 12 13 13 14 14 13 13 12 12 12 12 12 11 11 11 11 11 11 12 13 14 14 15 15 15 15 15 14 14 14 14 14 14 13 12 12 12 12 12 13 13 14 14 15 16 16 17 18 18 18 18 19 20 20 20 21 21
24 23 23 23 22 21 21 20 20 20 20 19 19 19 19 19 18 18 17 17 16 16 15 14 14 13 13 13 12 12 12 12 13 13 13 13 13 13 13 12 12 12 12 11 12 12 12 11 11 12 12 13 14 15 15 15 16 16 16 15 15 15 14 14 14 13 13 13 13 13 13 13 13 13 15 16 16 17 19 19 18 18 18 19 19 19 20 21
27 26 26 26 25 24 24 23 23 22 22 22 21 21 21 21 20 20 19 19 19 18 17 17 16 15 15 15 14 13 13 13 12 13 14 14 13 13 13 13 13 13 12 12 12 12 12 12 12 12 12 13 14 14 15 15 16 16 16 16 17 16 15 15 14 14 14 14 13 13 13 13 13 13 14 16 16 18 19 19 19 19 20 20 20 20 21 21
30 30 29 29 28 27 27 26 25 25 24 24 23 23 23 23 23 22 21 21 21 20 20 19 18 17 16 17 16 15 15 14 13 14 14 14 14 14 13 14 14 14 13 12 12 12 12 13 13 12 13 13 14 15 15 15 16 16 16 16 17 17 17 16 15 14 14 14 14 14 14 14 13 13 14 16 17 18 19 19 19 20 21 22 22 22 23 23
33 32 32 32 31 30 30 29 28 27 27 26 26 25 25 24 25 24 23 23 22 22 22 22 21 20 19 18 18 18 17 16 15 15 15 15 15 15 14 14 14 15 15 14 13 12 12 13 13 13 13 14 15 15 15 16 16 17 17 17 17 18 18 17 17 16 15 14 14 15 15 15 15 14 15 16 17 17 17 19 19 20 21 22 23 23 24 25
35 35 34 34 34 33 32 32 31 30 29 29 28 28 27 26 26 26 26 25 24 24 24 23 23 22 22 21 20 20 19 18 17 17 17 16 16 16 16 15 15 15 16 15 15 14 13 13 13 13 13 14 15 15 16 16 17 18 18 18 18 18 19 19 18 18 17 16 15 15 16 17 17 16 17 17 17 17 17 18 19 20 21 22 23 24 25 26
36 36 36 36 36 35 35 34 33 33 32 31 31 30 29 29 28 28 28 27 27 26 26 25 25 25 24 23 23 22 21 20 19 19 18 18 18 18 17 17 16 16 16 16 16 16 15 14 14 14 14 14 15 16 16 17 18 19 19 19 19 20 20 20 20 19 18 17 16 16 17 18 19 18 18 18 18 19 19 20 20 21 22 23 24 25 26 27
37 37 37 37 37 37 36 36 35 35 34 34 33 32 32 31 30 30 29 29 29 28 28 27 27 27 26 25 25 24 23 22 22 21 21 20 20 20 19 18 18 17 17 17 18 17 17 16 16 16 16 15 16 16 17 17 18 19 20 20 21 21 22 22 22 21 20 19 18 18 18 20 21 19 19 20 20 21 22 22 23 23 24 25 26 27 28 29
38 38 38 38 38 38 37 37 37 37 36 36 35 34 34 34 33 32 32 31 30 30 30 30 29 29 28 27 27 26 26 25 24 24 23 23 22 21 21 20 20 19 18 18 19 19 19 18 18 17 17 17 17 17 18 18 19 20 21 21 22 22 23 23 23 23 23 21 20 19 19 21 22 20 20 21 21 22 22 23 24 25 26 26 27 28 29 30
38 38 38 38 38 38 38 38 38 38 38 37 37 36 36 35 35 35 34 34 33 32 32 31 31 31 30 29 29 28 28 27 27 26 25 25 24 23 23 22 22 21 21 20 20 20 20 20 19 19 19 18 18 18 18 19 19 20 21 22 23 23 23 24 25 25 25 24 22 20 19 20 24 23 21 22 22 22 22 23 25 26 27 27 28 29 29 31
39 39 39 39 39 39 39 39 39 39 39 39 39 38 38 37 37 37 36 36 35 35 34 34 33 33 32 31 31 30 30 29 29 28 28 27 26 25 25 24 23 23 23 22 22 22 22 21 21 21 20 20 20 20 20 20 20 21 22 23 23 24 24 25 26 26 26 26 24 22 18 18 24 26 25 24 23 24 24 25 26 27 28 29 29 30 30 32
39 39 39 40 40 40 40 40 40 40 41 40 40 40 39 39 39 39 38 38 37 37 37 36 35 35 34 33 33 32 32 31 31 30 30 29 28 27 27 26 26 25 25 24 24 24 23 23 23 23 23 22 21 21 21 21 21 21 22 23 24 25 26 27 27 27 28 27 26 25 18 15 24 29 28 27 26 26 26 26 28 29 29 30 31 31 31 33
38 39 39 40 40 40 40 40 41 41 41 42 41 41 41 40 41 40 40 40 39 39 38 38 38 37 36 34 34 34 34 33 33 32 32 31 30 29 29 28 28 28 27 26 26 25 25 25 24 25 25 24 24 24 23 23 23 23 22 23 24 25 27 28 29 29 30 30 28 29 22 16 22 29 29 29 28 28 27 28 30 30 31 32 32 32 32 33
38 38 39 40 40 40 40 41 41 41 42 42 42 43 42 41 42 42 42 42 41 41 40 40 40 39 38 36 36 36 36 35 35 34 33 32 31 31 31 31 31 30 30 29 27 27 27 27 26 26 27 27 27 27 26 25 25 25 24 23 24 25 27 29 30 31 33 32 31 32 28 20 21 28 30 30 29 29 28 29 31 32 32 33 33 33 33 34
37 38 38 39 40 40 41 41 41 42 42 43 43 43 43 42 43 43 43 43 43 43 43 42 42 42 40 38 38 38 37 37 36 36 35 34 33 33 33 32 32 32 32 30 30 29 28 28 28 28 28 29 30 29 28 27 27 27 27 26 25 26 27 28 31 33 34 34 33 34 33 25 23 27 29 30 31 30 29 30 32 32 32 33 33 33 33 34
38 38 38 38 39 40 41 41 42 42 42 43 44 44 45 44 44 44 44 44 44 44 45 44 44 44 42 41 40 39 39 38 37 36 35 35 35 34 34 34 33 33 33 32 32 31 30 30 30 30 30 31 32 32 31 30 29 30 29 28 27 27 28 29 31 34 35 35 34 36 37 30 26 27 30 32 32 31 30 31 33 33 33 34 34 34 34 35
40 39 39 39 39 39 40 41 41 42 42 44 44 45 46 45 45 45 45 45 45 46 46 45 46 45 44 43 42 41 41 39 37 36 36 35 36 36 35 35 35 34 34 34 33 33 33 32 32 32 31 32 34 34 33 33 32 32 32 31 30 29 29 30 33 35 36 36 35 37 39 35 29 28 30 33 34 32 31 32 33 33 34 35 35 35 35 35
42 41 41 40 40 40 40 40 41 41 42 43 44 45 45 46 46 45 46 46 46 47 47 46 47 46 45 45 44 43 43 41 39 37 37 37 37 37 37 37 37 36 36 35 35 36 35 35 34 32 32 34 36 35 35 35 35 35 35 35 33 32 31 32 35 36 38 39 35 37 41 38 33 30 30 33 35 33 33 34 34 34 36 36 35 36 36 37
45 44 43 42 41 41 41 41 41 41 41 42 44 45 45 46 46 46 46 46 47 47 48 48 48 47 46 46 45 45 44 43 41 39 39 39 40 40 40 39 40 39 39 38 39 39 38 38 35 33 34 36 37 36 36 37 38 38 38 37 36 36 35 34 37 38 39 42 38 37 42 40 36 34 32 33 34 33 34 35 34 35 37 36 36 37 38 38
48 47 46 45 44 43 43 42 42 42 42 42 43 44 45 46 46 46 47 47 47 48 48 48 48 48 47 47 46 46 45 44 42 41 41 41 42 42 42 42 42 42 41 42 42 41 41 40 35 35 38 37 38 38 38 39 40 40 40 39 38 38 38 37 38 40 41 45 42 40 44 41 37 37 35 34 34 32 34 35 34 36 37 37 38 38 39 40
49 49 48 47 46 45 45 44 44 43 43 43 43 44 45 46 46 46 47 47 46 47 48 48 48 48 47 47 47 46 46 44 43 42 42 42 42 43 44 43 43 43 43 44 44 43 43 41 36 37 39 38 39 39 40 40 41 42 42 41 40 40 42 41 40 41 43 47 46 44 47 44 39 39 35 35 34 31 33 34 34 36 38 38 38 38 40 41
51 51 51 50 49 48 48 47 46 46 45 45 44 44 45 45 46 47 48 49 46 46 48 48 48 48 47 47 47 46 46 44 43 42 42 43 43 44 45 44 44 44 44 44 44 45 44 41 39 39 40 40 40 40 41 41 43 43 43 42 42 42 44 45 43 44 45 48 49 49 52 48 43 41 35 32 35 33 32 32 33 36 38 38 38 39 41 42
51 51 52 52 51 51 51 50 49 48 48 47 47 46 46 46 47 48 49 52 50 46 46 48 48 48 47 46 46 45 45 44 43 42 42 43 44 44 45 44 45 44 43 44 45 46 45 42 41 41 41 41 42 42 41 42 44 44 43 43 44 44 45 47 47 47 47 49 50 51 55 52 46 44 37 31 34 36 33 31 33 36 36 37 37 38 41 42
52 52 53 53 52 53 54 53 52 51 50 50 50 49 49 49 49 49 50 55 56 49 45 47 48 46 45 45 45 44 44 43 41 41 41 42 43 44 44 44 45 44 44 45 47 47 45 43 43 42 42 43 43 42 41 43 45 46 45 43 45 46 46 47 48 50 50 51 51 51 53 53 48 47 43 35 33 36 36 34 33 35 34 35 37 38 41 43
53 53 53 53 53 54 56 55 54 54 53 52 52 51 51 51 51 52 53 58 61 55 49 49 47 45 43 43 42 42 44 42 40 41 41 42 43 44 45 45 45 44 44 46 48 48 44 42 43 43 43 43 43 42 41 42 46 48 46 44 45 47 47 49 49 50 53 54 54 51 50 53 51 47 46 42 36 34 36 36 34 34 34 35 37 40 43 44
52 53 54 54 53 55 57 56 56 55 55 54 54 54 54 53 53 54 55 61 65 61 55 51 48 45 43 42 42 42 44 42 40 41 41 42 43 44 44 44 44 45 45 46 48 47 44 42 42 43 44 43 42 42 41 43 47 49 48 46 46 47 48 50 50 52 53 55 58 52 48 55 54 47 46 45 38 32 34 37 36 36 35 35 38 42 45 46
50 51 53 54 54 56 58 57 57 57 56 55 55 55 55 55 56 55 58 66 70 65 60 55 50 47 44 42 42 42 44 43 42 42 41 42 43 44 45 44 44 45 45 47 48 46 44 43 42 43 44 43 43 43 43 46 48 49 49 48 48 48 50 51 51 53 53 57 61 52 47 56 56 50 49 45 39 34 34 38 37 36 35 36 40 43 45 46
51 51 51 52 53 56 59 59 58 58 58 57 57 57 57 56 57 57 61 70 73 67 61 57 52 48 45 43 43 43 44 45 45 45 43 44 45 45 45 45 45 45 45 47 47 45 44 44 44 45 44 44 44 46 47 47 48 48 49 50 50 50 51 52 53 54 54 60 61 52 49 57 58 54 49 44 42 39 37 39 37 35 36 37 40 42 44 47
54 52 51 51 52 55 58 59 59 59 59 58 58 58 58 58 58 61 68 74 73 66 62 60 55 50 46 45 45 45 45 46 46 46 46 46 46 46 46 46 46 47 47 48 47 46 46 46 47 47 46 46 46 47 47 47 48 48 49 50 50 52 53 54 55 55 57 62 61 54 53 59 61 54 47 45 46 42 39 39 37 36 38 38 39 41 45 49
56 55 54 52 52 54 56 58 60 60 60 59 59 59 60 60 61 67 75 76 69 65 63 60 56 52 49 47 46 45 45 45 46 46 47 47 48 48 48 47 47 48 48 49 48 47 47 47 48 47 47 47 46 47 47 47 48 48 49 50 50 54 55 56 57 57 60 64 61 57 58 62 62 54 48 48 49 46 42 40 39 39 40 39 39 41 46 52
58 57 56 55 54 54 56 57 59 60 60 60 60 60 60 62 67 74 77 73 67 66 63 58 56 55 51 49 48 46 46 46 46 47 48 48 49 49 48 48 48 48 49 49 47 47 48 47 47 47 46 46 46 46 47 49 49 49 50 50 51 54 56 58 61 60 62 64 62 60 61 62 59 52 49 49 52 51 46 42 42 42 41 39 39 42 48 53
59 58 58 57 56 56 57 58 59 60 61 61 61 62 61 66 74 77 75 70 67 66 62 58 58 56 54 53 51 49 49 49 49 49 49 50 51 50 50 50 49 48 49 49 49 50 50 49 48 46 45 46 47 48 49 51 51 52 53 52 54 55 57 60 61 62 64 63 61 60 61 60 56 52 52 55 57 55 48 43 43 42 41 40 41 44 48 51
60 59 59 58 57 58 58 59 59 60 61 62 63 64 66 71 77 77 74 70 66 64 62 60 59 57 57 57 56 54 52 51 51 51 50 51 52 52 51 50 50 49 49 50 51 51 51 52 50 47 47 49 50 51 52 53 54 55 54 55 56 55 55 58 58 60 61 59 58 59 59 60 58 57 60 63 63 59 50 45 44 43 43 44 43 43 47 51
61 61 60 59 58 59 60 60 60 60 62 64 65 67 70 73 74 74 72 69 65 63 61 60 58 59 59 59 58 56 53 52 52 51 52 53 53 52 52 51 50 49 49 51 51 51 52 55 54 52 53 54 54 53 52 52 53 53 52 53 53 51 50 53 55 55 56 56 57 58 61 62 62 64 67 66 65 60 50 45 45 45 46 46 44 44 48 51
62 62 62 60 60 61 62 62 61 61 62 64 66 69 68 68 70 71 71 69 66 63 61 60 60 60 61 60 59 56 54 54 53 53 54 54 54 54 54 53 51 51 51 52 52 51 53 56 56 57 57 55 53 50 48 49 50 50 50 50 49 48 49 52 54 54 55 58 60 61 65 67 66 67 67 64 63 57 49 46 46 44 44 44 43 44 48 52
64 64 64 63 63 64 65 65 65 64 63 64 68 68 66 66 68 69 71 70 67 64 62 62 62 62 61 61 59 57 55 56 57 57 57 57 58 58 56 55 53 53 52 52 52 52 53 54 53 54 54 52 49 47 48 49 50 50 51 51 51 52 53 54 55 56 58 62 64 64 67 69 68 67 64 62 59 54 50 48 46 43 43 43 42 44 49 53
68 67 66 65 66 69 69 68 68 67 67 67 69 68 67 66 66 67 69 70 68 65 64 64 64 63 63 62 62 60 59 59 60 61 60 61 62 61 58 56 54 52 51 51 52 52 53 54 52 51 53 51 49 51 53 52 52 54 54 54 55 57 57 56 56 58 60 64 66 66 67 68 66 64 62 59 54 51 49 47 45 44 44 43 45 48 52 56
74 74 71 68 69 73 74 73 71 70 71 71 70 69 67 66 64 65 68 69 68 68 68 67 66 66 66 66 65 64 63 63 62 61 62 61 62 61 58 56 55 53 51 52 54 54 55 57 57 56 55 55 54 56 56 54 56 58 58 59 60 60 60 59 60 62 63 65 67 67 68 65 62 62 60 53 50 48 47 45 46 47 47 49 52 53 56 58
77 79 76 72 73 76 75 75 74 72 74 74 71 69 68 67 65 64 65 67 69 70 71 70 69 69 69 69 67 65 64 64 62 62 62 61 61 60 58 57 56 55 54 55 57 57 57 59 60 59 59 60 59 58 58 58 60 62 62 63 62 62 63 63 65 66 65 66 66 68 70 64 59 61 56 51 50 48 47 47 48 50 51 53 54 55 57 58
75 77 74 72 76 76 73 73 73 74 76 75 73 72 71 69 67 65 65 67 69 70 70 70 70 70 70 69 67 65 65 65 65 64 65 63 62 61 59 58 57 56 57 58 59 59 60 61 60 59 60 62 61 60 62 63 63 65 65 65 64 64 65 66 68 67 66 68 68 70 73 66 60 60 55 51 52 50 49 51 52 53 53 52 53 54 56 57
71 72 69 69 74 74 72 71 70 73 76 75 72 72 71 70 68 68 68 69 70 71 71 71 70 69 68 67 66 65 66 67 67 68 68 66 64 63 60 58 59 60 60 60 60 60 61 62 61 60 60 60 62 64 65 66 67 68 67 66 66 66 66 66 67 67 67 70 71 73 76 70 63 59 54 52 53 53 54 55 55 55 54 53 54 56 57 58
68 68 66 66 68 69 72 73 71 72 73 71 70 71 71 70 69 69 69 70 71 71 72 72 71 70 68 67 67 67 68 70 70 71 70 68 66 64 61 61 62 63 62 63 63 63 63 63 62 61 61 62 65 67 68 69 70 69 67 65 65 65 64 64 67 69 70 72 73 75 78 75 65 58 56 55 56 56 57 56 55 55 55 56 57 58 59 59
67 67 66 66 68 69 70 69 68 68 67 67 68 69 70 72 71 70 71 73 73 72 73 73 73 72 70 69 68 68 69 71 72 71 70 68 67 64 64 65 65 65 65 65 66 67 66 64 63 64 65 67 69 69 70 70 69 68 66 64 63 62 62 65 68 70 72 74 74 74 79 77 66 58 59 59 57 58 56 53 52 55 57 59 60 61 60 59
69 70 68 67 70 72 68 63 62 64 65 67 69 70 70 71 70 69 71 72 73 74 75 76 75 73 71 70 69 69 70 71 70 69 69 68 67 66 66 67 66 66 67 67 69 69 68 68 69 70 73 74 71 69 69 69 67 67 65 63 63 61 63 66 67 69 74 76 74 74 79 76 65 60 63 59 56 56 52 49 53 57 60 62 63 62 60 60
75 74 73 72 74 75 70 64 62 63 65 67 69 69 70 71 69 68 69 70 71 73 75 77 76 75 74 73 73 73 73 73 71 70 69 68 69 69 69 68 68 68 68 68 70 70 72 74 74 74 77 76 70 66 67 68 67 66 65 65 65 64 64 65 68 72 76 76 75 74 75 73 66 64 65 59 54 51 48 50 56 60 62 64 63 61 60 62
82 81 78 77 80 81 77 72 68 65 62 64 65 63 63 64 64 65 66 68 69 71 73 75 76 76 76 76 77 78 78 77 76 75 73 72 72 72 72 72 70 69 68 68 69 72 75 76 72 71 73 71 67 65 65 68 68 68 68 68 67 67 66 67 72 74 72 75 79 75 71 71 68 66 65 61 53 48 49 54 58 62 64 65 62 61 62 62
85 86 83 82 84 87 85 81 77 71 66 65 66 66 64 61 59 59 60 61 63 66 68 70 70 71 72 72 74 76 75 74 75 74 72 70 69 68 68 67 66 65 65 65 67 69 72 72 68 68 71 71 71 70 70 71 71 69 70 69 67 67 68 70 73 72 70 76 80 74 69 69 67 67 66 58 50 50 55 57 59 63 65 64 62 62 62 61
87 88 86 86 89 91 90 87 84 82 78 73 72 75 75 70 65 62 61 62 63 64 65 67 66 66 67 68 70 72 71 70 71 70 69 69 67 66 65 64 65 66 67 67 67 67 70 71 70 72 75 75 72 71 71 71 70 70 69 68 66 67 69 71 72 71 71 75 76 73 71 71 69 69 64 51 46 54 58 58 60 63 63 62 62 63 62 60
89 89 87 87 89 90 90 90 90 91 89 84 81 81 81 80 76 72 70 71 71 70 70 71 69 68 69 70 71 73 71 70 71 70 69 69 68 66 66 66 65 65 65 66 66 68 70 71 69 70 74 73 69 68 70 70 71 71 70 68 68 68 69 69 70 72 74 76 76 74 75 76 73 68 59 49 50 58 60 59 61 61 60 62 63 62 61 58
88 88 89 91 93 91 89 89 89 91 92 91 89 86 84 83 80 77 78 78 77 75 74 73 71 72 74 75 75 74 72 72 73 72 70 69 68 68 68 68 67 66 66 65 65 66 68 69 69 70 75 76 71 69 72 72 72 73 73 73 72 69 69 71 74 77 77 76 75 74 77 79 73 66 59 55 57 62 61 59 60 61 63 65 63 59 57 55
86 86 87 89 93 95 94 92 89 89 91 93 94 92 90 89 85 83 85 84 80 77 77 75 74 75 78 78 77 74 72 70 69 67 65 65 66 67 67 68 69 70 70 70 70 71 73 76 76 76 78 80 77 74 74 72 72 76 79 77 72 70 71 75 79 80 77 75 75 76 77 75 68 63 61 58 60 63 61 59 62 65 66 63 59 56 55 55
Wind_Direction
246 247 248 250 252 254 256 258 261 264 266 269 272 274 277 279 282 285 286 287 289 290 292 295 298 302 308 315 322 329 336 341 346 349 350 351 352 353 356 1 6 8 9 8 4 3 360 352 346 344 342 341 339 338 337 336 334 332 330 327 323 319 316 315 316 315 311 307 305 302 301 299 299 299 298 299 299 298 297 293 292 293 291 289 289 289 289 288
246 247 248 249 251 253 255 257 259 262 264 267 269 271 273 275 277 280 281 282 283 283 284 286 289 292 296 301 308 316 322 329 334 338 342 345 347 345 344 348 355 359 1 1 359 358 358 352 346 343 341 338 336 336 336 336 335 334 334 333 330 327 324 323 323 321 317 313 310 307 305 302 300 299 297 296 296 296 293 292 295 296 294 294 293 292 290 288
247 247 248 249 250 252 253 255 257 260 262 264 266 268 270 272 273 275 277 279 280 280 280 279 281 284 288 292 296 302 308 316 321 326 332 335 339 339 336 335 341 348 351 353 353 353 353 348 346 343 338 334 332 332 333 333 334 334 335 334 331 330 328 328 329 329 326 324 321 317 313 307 304 301 296 293 291 288 287 290 295 296 296 295 294 293 291 289
248 249 249 250 251 252 253 254 256 258 260 262 264 266 268 270 271 272 274 275 277 278 278 278 278 278 281 284 288 292 297 303 309 315 321 323 328 332 330 327 329 334 340 344 346 348 347 343 344 341 334 332 331 328 328 329 330 331 332 332 330 329 328 328 330 332 333 333 332 329 323 316 312 306 299 294 290 288 290 293 294 293 293 291 291 291 290 288
248 249 250 251 251 252 253 254 255 257 258 260 261 263 265 268 269 270 271 272 274 275 276 277 276 276 277 279 282 285 288 293 299 304 308 312 317 321 323 323 322 323 327 332 336 339 340 339 339 336 332 331 330 326 325 325 325 326 327 328 328 327 327 328 329 331 334 336 336 335 332 327 324 317 309 303 299 300 299 298 296 294 292 291 291 290 289 288
247 248 249 250 251 252 254 255 256 257 258 259 260 262 263 265 267 268 269 270 271 272 274 275 275 276 275 275 277 279 282 285 290 293 297 302 306 309 313 316 318 317 318 321 325 328 331 334 332 330 328 327 326 325 325 324 323 322 322 322 324 324 325 328 329 331 333 335 336 336 334 332 330 327 322 315 313 312 307 303 301 298 296 295 294 292 290 289
248 248 249 249 250 251 252 254 255 257 258 259 261 262 262 263 265 267 268 268 269 269 270 272 273 274 274 274 274 275 277 279 282 285 288 292 297 300 302 307 311 312 313 313 315 317 321 324 324 324 323 323 324 324 325 324 322 321 320 320 320 321 322 325 327 330 332 334 336 336 333 330 328 328 326 323 321 318 314 311 307 303 299 297 295 293 292 290
250 250 251 251 251 251 252 253 254 256 258 259 260 261 262 263 264 265 266 267 268 268 269 269 270 271 272 272 273 273 274 276 278 279 281 284 288 291 293 298 301 304 307 308 309 311 312 314 317 319 320 321 322 323 324 323 322 321 321 320 319 319 319 321 323 325 328 331 334 335 333 328 327 329 328 327 325 322 320 317 313 309 305 301 298 296 294 292
254 253 253 253 253 253 253 254 255 256 257 259 260 261 262 263 264 265 265 267 267 268 269 269 270 270 271 271 272 272 272 273 274 276 278 279 282 284 286 290 293 297 300 302 304 306 307 308 309 313 315 317 318 319 321 321 321 321 321 320 320 320 318 319 320 320 323 326 330 331 332 327 324 329 329 328 327 324 322 319 315 312 308 305 302 300 298 296
255 256 256 256 256 256 256 256 256 257 258 259 260 261 263 264 265 265 266 266 267 267 268 269 269 270 270 270 271 271 272 272 273 274 275 276 278 279 282 285 288 291 293 296 299 301 304 304 305 306 309 312 313 314 315 317 318 319 319 319 320 320 318 318 317 318 318 320 324 326 329 324 319 325 328 327 326 323 322 319 315 312 309 306 304 302 301 299
255 256 256 257 257 257 258 258 258 259 259 260 261 262 263 264 265 266 267 268 268 268 268 269 269 269 270 270 270 271 272 272 272 273 273 274 276 277 280 282 284 287 289 291 293 296 298 301 302 302 304 307 308 309 310 312 314 316 317 318 319 318 317 317 316 317 316 316 319 320 327 323 314 319 322 321 322 320 320 318 315 312 308 306 304 303 301 299
256 256 256 257 257 258 258 258 259 260 260 261 262 262 263 265 265 266 267 269 269 270 270 270 270 270 270 270 271 271 272 272 273 273 273 274 275 277 279 281 283 285 286 288 290 291 294 297 298 300 301 303 304 306 306 306 309 311 313 315 316 316 316 314 314 314 313 313 315 316 327 324 311 314 317 316 317 317 318 316 314 312 309 308 306 304 303 301
257 256 256 257 257 258 259 259 260 260 261 262 262 263 264 265 266 267 268 269 270 271 272 272 272 271 271 271 272 271 272 273 273 273 274 274 275 277 279 281 282 283 285 286 288 289 291 293 295 298 299 300 302 303 303 303 305 306 309 311 312 313 314 312 312 312 310 311 313 313 324 325 310 310 314 315 315 314 315 315 312 311 311 309 308 308 307 305
259 258 257 257 257 258 259 260 261 261 262 262 263 264 265 266 267 268 269 270 271 272 273 273 273 273 272 273 273 273 273 273 275 275 275 276 277 278 279 280 281 282 284 284 286 288 289 290 292 295 296 298 300 301 301 302 302 303 305 308 308 310 311 311 311 311 309 310 313 311 316 324 311 309 312 314 314 313 315 314 311 311 311 310 309 310 309 307
260 259 258 257 257 258 258 259 261 262 263 264 265 265 265 266 268 269 269 271 271 272 273 274 274 274 274 275 275 274 274 275 276 276 277 278 278 279 279 279 281 282 283 284 285 287 288 289 291 293 294 297 298 299 299 300 301 300 301 304 305 306 307 308 308 308 307 309 313 310 311 319 312 308 311 312 312 312 315 313 310 310 310 309 309 309 309 307
260 259 259 258 258 258 258 258 260 261 263 264 265 266 266 266 267 268 269 270 271 272 273 274 274 274 274 275 275 275 276 276 276 277 279 280 280 280 280 281 282 282 283 284 285 286 287 288 290 292 294 296 296 296 296 298 299 298 299 301 302 303 304 306 305 305 304 307 311 309 310 316 312 308 310 310 309 312 315 313 310 309 308 307 307 308 308 307
259 259 259 259 258 258 258 258 259 260 261 263 264 265 265 265 266 267 268 269 270 271 272 273 274 274 275 275 275 275 276 276 276 278 280 281 281 281 281 282 282 282 283 284 285 286 286 287 290 292 295 296 294 294 296 297 297 297 297 297 299 300 301 303 302 301 302 305 309 308 308 312 312 309 308 307 307 311 314 311 309 310 308 307 306 308 308 307
259 259 259 259 258 258 258 259 259 259 260 261 263 264 265 266 265 266 267 268 269 270 271 272 273 273 274 275 275 275 275 275 276 278 280 281 281 281 282 282 282 283 283 284 285 285 286 287 289 292 296 294 292 294 297 296 296 296 296 295 297 297 299 301 300 299 300 302 306 307 306 310 313 310 306 305 306 310 312 308 308 311 309 307 307 307 307 307
259 259 259 259 259 259 259 259 259 259 259 261 262 263 264 265 266 266 266 267 268 269 270 271 271 272 273 274 275 275 275 276 277 278 279 280 280 281 281 281 282 282 283 284 284 284 286 287 289 294 294 291 292 296 297 296 296 297 296 296 296 296 298 298 296 298 299 299 303 304 303 308 313 310 306 304 305 310 311 307 309 311 309 308 307 307 306 306
259 259 260 260 259 260 259 259 259 259 259 259 261 262 263 264 265 266 266 267 267 268 269 269 270 271 272 273 274 275 275 277 278 279 280 279 279 279 280 281 281 282 283 284 283 284 285 286 290 293 290 290 294 296 296 296 297 297 297 296 296 297 298 296 295 296 296 297 300 301 300 306 311 308 306 304 305 310 308 306 309 309 307 308 308 307 306 305
258 258 259 260 260 261 261 260 260 260 260 259 260 262 263 264 265 265 266 266 266 267 267 268 269 270 271 272 273 274 275 277 279 280 279 279 279 280 280 280 281 282 283 283 283 285 284 285 290 291 289 292 294 294 295 296 296 296 296 296 296 297 297 296 295 296 296 296 299 299 299 304 308 305 305 303 305 308 306 306 308 305 304 307 309 309 307 305
256 257 258 259 260 261 261 261 261 261 261 261 260 261 263 264 266 267 267 266 266 267 267 267 268 269 269 271 272 273 275 276 278 279 279 280 280 280 280 280 280 281 281 282 284 284 283 286 289 289 290 292 292 293 294 294 295 296 295 295 296 298 297 296 295 295 296 296 299 299 299 304 306 302 304 305 304 306 306 307 306 301 302 307 309 310 308 305
256 256 258 258 259 260 260 261 262 262 262 262 262 262 263 264 266 267 268 268 266 265 267 268 268 268 268 269 271 273 274 276 276 277 278 279 279 279 279 280 280 280 281 282 283 283 284 287 288 288 289 290 291 292 292 293 294 294 293 294 297 298 297 296 296 295 295 296 299 300 301 305 306 301 303 305 303 304 306 306 302 299 302 306 309 310 307 305
257 257 257 258 259 259 260 260 261 262 262 263 263 263 263 264 265 267 268 270 268 265 265 267 267 268 269 270 271 273 275 275 276 277 278 278 279 279 279 279 279 280 281 282 281 282 284 286 287 288 289 289 289 290 291 293 292 291 291 293 296 296 295 296 297 296 295 296 298 300 303 306 306 302 303 304 303 304 307 307 303 301 302 305 308 308 305 304
257 257 257 258 258 259 260 260 261 262 262 263 263 264 264 264 265 266 268 269 269 266 264 264 266 267 270 272 274 275 276 277 278 279 279 279 279 278 278 278 279 280 281 281 281 281 283 286 287 287 288 287 288 289 291 291 290 289 290 293 295 295 294 295 295 296 295 296 297 298 303 307 305 303 306 308 306 306 310 311 306 304 304 305 307 306 304 303
258 258 258 258 259 259 260 260 261 262 262 263 264 264 264 265 265 266 268 268 269 268 264 263 264 266 268 271 273 276 277 278 280 280 279 279 278 278 278 279 280 281 280 280 280 281 283 285 286 286 287 286 287 289 290 288 287 288 291 293 293 293 293 293 293 294 294 296 297 297 303 305 302 303 307 309 308 310 313 313 310 309 308 307 307 307 305 304
260 259 259 259 260 260 260 261 261 262 263 263 264 264 265 266 266 267 268 268 268 268 266 264 264 266 267 269 271 273 275 277 278 276 277 277 277 278 278 279 280 280 280 280 280 282 284 285 285 285 285 285 287 288 287 285 286 288 291 292 291 291 291 291 291 291 292 295 295 296 302 301 300 304 307 306 309 314 313 311 312 312 310 309 309 308 306 304
260 260 260 260 260 261 261 261 261 262 263 263 264 265 265 265 266 267 268 268 268 268 268 268 267 267 268 270 271 271 273 274 274 273 274 276 276 277 277 278 278 278 279 279 280 283 284 284 284 283 283 285 286 286 284 284 286 288 290 290 290 290 289 289 289 289 291 293 294 298 300 297 298 303 304 306 311 314 311 309 311 311 310 311 309 307 304 302
260 259 260 259 259 260 261 262 262 262 262 263 263 264 265 265 266 266 265 265 266 268 270 271 271 271 272 272 272 271 272 273 274 274 274 273 274 274 275 276 276 277 277 278 280 282 283 283 283 282 283 284 284 283 283 284 286 287 289 288 288 288 288 287 287 289 290 291 295 299 298 296 298 300 302 308 311 311 312 310 310 310 310 310 308 305 302 300
259 259 259 259 259 259 260 261 262 262 262 262 262 263 264 264 265 265 263 263 265 269 271 273 273 274 274 273 272 272 272 273 274 275 275 274 274 273 273 274 274 275 276 277 279 280 281 281 281 282 282 282 282 282 283 284 285 286 286 286 286 286 285 285 286 288 289 291 295 297 295 295 295 298 306 309 307 309 310 308 309 311 311 309 306 303 301 299
258 259 259 259 259 260 260 260 261 262 262 262 262 262 262 262 263 262 261 263 267 269 271 273 275 276 275 274 273 273 273 273 274 274 275 275 275 275 275 275 276 276 277 278 279 280 280 280 280 280 281 282 283 283 283 283 283 284 284 284 284 284 284 285 287 288 289 291 294 295 295 293 292 299 308 308 305 305 306 307 312 312 310 309 307 304 301 299
258 259 259 259 259 260 260 261 260 260 260 261 262 261 261 261 260 259 261 264 267 268 270 273 275 276 275 274 273 273 273 273 273 273 274 275 275 276 277 277 278 278 279 280 280 280 279 279 279 280 281 283 283 283 283 282 282 283 283 282 282 283 284 286 289 290 289 290 293 295 293 291 293 302 307 304 301 301 304 311 314 311 310 310 307 305 301 298
259 260 260 260 260 260 261 261 261 260 259 260 260 260 260 259 259 259 261 263 265 268 271 273 273 274 275 275 274 273 272 272 272 272 273 274 275 276 277 278 279 280 280 281 281 280 280 280 280 282 283 283 282 282 282 282 283 282 282 282 281 282 285 288 291 291 289 291 294 292 291 292 298 305 305 301 299 299 306 313 313 311 311 310 307 305 300 298
259 260 260 261 262 262 262 262 261 260 259 258 258 258 257 257 260 261 262 263 266 268 271 272 273 274 275 275 274 274 273 272 272 273 274 274 274 275 276 278 279 280 281 282 281 282 283 282 282 284 283 281 281 281 281 283 283 282 283 282 283 286 288 289 290 289 290 291 291 290 291 296 302 304 301 299 298 301 310 315 312 311 311 309 307 304 300 299
259 260 260 261 262 263 264 263 262 260 258 257 257 256 256 258 260 263 264 265 266 267 269 270 272 273 272 272 273 274 275 275 274 274 274 274 274 275 276 277 278 280 281 281 282 284 284 282 282 283 281 281 281 281 283 283 282 283 283 283 287 290 290 288 287 287 289 289 289 292 293 296 300 299 296 297 298 303 313 315 311 310 309 307 306 303 299 298
260 260 261 261 262 263 263 263 263 262 259 257 256 257 260 262 262 263 265 266 266 267 268 269 270 270 270 271 272 273 276 277 276 276 275 275 275 275 276 277 278 279 280 281 283 283 281 280 281 282 282 282 283 283 283 282 281 282 283 286 290 290 287 286 286 287 286 286 290 294 295 297 298 295 293 295 299 306 314 313 308 308 306 304 303 300 297 295
260 260 261 262 262 262 261 262 262 262 261 258 257 261 265 264 262 262 263 264 266 267 268 268 268 268 269 271 272 273 274 275 276 276 276 276 276 276 277 278 279 279 280 282 282 281 280 280 280 280 282 282 283 284 282 280 282 284 286 288 289 287 285 286 286 286 285 285 289 293 295 296 294 291 293 297 302 310 314 312 309 307 305 306 304 299 295 293
261 261 261 263 263 262 260 260 259 260 260 259 260 264 266 265 263 262 262 263 265 266 267 267 268 269 270 271 272 272 273 273 274 275 276 276 277 277 279 280 279 280 281 282 283 284 285 284 280 277 279 282 282 281 280 282 285 287 287 286 285 285 285 285 285 286 286 286 288 292 294 293 291 291 294 299 306 312 312 310 308 306 307 308 304 300 297 297
262 262 262 263 265 264 261 258 257 257 257 258 261 264 265 267 267 264 262 262 263 265 265 266 268 269 270 271 272 272 273 273 274 274 275 276 276 277 279 279 280 281 282 283 284 285 285 285 282 280 282 282 280 278 280 283 285 285 283 282 282 283 284 285 285 285 285 286 289 292 290 290 292 293 295 303 310 310 307 307 306 305 308 306 302 300 299 299
266 265 263 263 264 266 264 259 256 255 256 258 261 262 263 265 266 265 264 263 263 264 265 266 267 268 269 271 271 272 273 274 274 275 274 275 275 276 276 278 279 281 282 281 282 281 281 281 282 283 282 280 278 279 280 281 280 280 280 280 281 282 284 285 284 285 286 287 290 290 287 290 293 293 299 309 310 307 306 306 306 306 306 303 301 300 300 300
267 267 267 265 264 266 266 261 257 256 257 258 261 262 262 263 264 265 266 265 265 265 265 266 266 267 269 270 271 273 274 274 274 274 273 273 273 273 275 277 279 280 280 279 279 279 280 280 280 281 280 279 279 280 279 278 279 279 279 280 282 283 283 283 284 287 289 288 287 285 285 290 293 294 304 310 305 306 308 307 307 306 304 303 302 301 301 302
265 266 267 265 263 264 265 263 260 258 258 260 263 263 263 264 264 264 264 265 266 266 266 267 267 268 269 270 271 272 272 273 273 272 272 272 272 273 276 277 278 278 278 277 278 279 280 279 279 278 278 278 278 278 277 278 279 280 282 285 286 285 284 284 286 287 286 285 284 281 282 289 294 298 304 304 301 306 307 306 306 303 301 302 302 302 302 303
262 263 263 263 263 263 264 264 263 260 261 265 266 265 265 265 264 264 265 265 266 267 268 268 268 269 269 270 270 271 272 273 272 272 272 273 274 275 276 276 276 276 276 277 278 279 279 278 278 277 276 276 276 276 276 276 278 282 286 289 287 285 285 285 285 285 284 283 283 280 280 287 297 303 301 300 302 306 306 305 303 299 299 301 301 301 303 304
259 260 260 260 261 261 260 261 262 262 262 264 264 265 265 265 265 265 266 266 267 268 269 269 269 269 269 270 272 273 273 273 273 273 274 275 276 276 276 275 275 276 276 277 277 276 277 277 277 277 276 276 276 276 276 277 280 283 286 286 283 282 283 283 284 285 284 283 282 280 281 289 299 302 298 300 304 306 306 304 299 297 300 301 302 303 304 304
256 259 260 259 259 259 257 257 258 259 258 259 260 262 263 264 265 266 267 268 268 269 270 270 269 270 270 271 271 271 271 272 274 275 276 277 278 277 276 275 276 276 276 275 275 276 276 276 276 275 276 277 277 278 279 280 280 280 281 281 281 281 281 282 283 283 282 282 282 282 286 293 299 298 297 301 305 306 304 299 296 299 302 302 303 304 304 303
253 255 257 259 260 260 258 257 258 258 258 258 260 261 263 265 267 268 268 268 269 269 269 269 269 269 269 269 269 270 271 272 274 275 277 278 279 278 278 277 277 277 276 276 275 274 273 273 273 274 275 276 278 279 279 278 277 278 280 280 281 282 281 280 280 280 282 283 283 286 292 296 297 296 296 301 306 304 298 294 297 302 302 303 304 304 303 302
253 252 251 253 258 261 260 259 261 262 262 261 261 261 263 265 266 266 265 265 266 267 267 267 268 269 269 269 271 272 272 272 273 274 276 277 278 278 278 278 278 277 276 275 273 271 271 270 272 274 274 275 278 279 278 277 277 279 280 280 281 282 281 279 278 280 283 282 285 293 297 296 296 296 298 303 305 298 291 295 300 301 301 302 302 301 301 300
253 253 251 250 254 258 259 258 260 263 264 263 262 260 259 259 258 259 260 261 262 262 263 265 267 269 270 271 272 273 273 273 274 275 276 276 275 275 276 277 277 276 275 273 271 269 269 269 271 274 274 276 278 278 277 276 277 278 278 279 281 281 280 278 278 280 282 284 290 296 296 294 296 298 301 305 300 291 292 297 299 299 300 301 299 299 300 299
251 252 253 252 253 255 257 258 260 262 262 261 260 258 257 255 254 254 256 257 258 259 262 265 266 268 269 269 270 271 271 272 272 273 274 274 273 273 274 275 275 274 273 271 269 268 269 271 274 275 275 275 276 278 278 276 276 277 276 277 281 280 277 276 278 284 287 288 290 292 292 293 296 300 303 301 292 291 295 297 296 297 298 296 295 298 299 298
252 252 252 253 254 255 256 257 259 261 261 260 259 258 257 256 255 254 256 257 260 263 265 266 266 267 268 269 269 270 269 270 272 272 273 273 272 272 272 272 272 271 269 268 267 268 270 273 274 275 275 274 275 278 276 275 276 275 273 277 280 278 275 279 284 288 288 286 286 289 290 291 295 300 300 293 290 293 294 293 294 295 294 292 294 298 298 295
254 254 253 253 255 255 254 255 256 258 258 258 258 257 257 256 256 257 259 260 261 263 264 264 266 267 268 267 267 268 269 272 273 273 272 271 270 270 269 269 269 269 268 268 268 270 272 274 275 276 275 275 278 278 275 274 274 271 272 278 281 278 279 284 287 285 284 284 286 286 286 290 296 298 293 290 292 293 291 291 293 292 290 292 296 298 295 291
254 255 254 254 255 255 255 255 255 256 256 256 257 257 256 257 257 259 261 261 259 261 263 264 265 266 267 266 267 268 270 271 271 269 268 268 268 269 269 270 270 271 271 272 271 273 275 276 277 277 276 277 278 276 274 272 269 270 276 282 282 281 282 283 283 282 282 284 284 285 287 292 295 292 289 291 292 289 290 292 292 290 291 295 298 295 291 289
Height
5899 5899 5900 5900 5900 5901 5901 5901 5901 5901 5901 5901 5901 5901 5901 5901 5901 5901 5901 5900 5900 5900 5900 5899 5899 5898 5898 5897 5897 5896 5895 5895 5894 5893 5892 5891 5890 5889 5887 5886 5885 5884 5883 5883 5882 5881 5880 5879 5878 5877 5876 5876 5875 5874 5872 5871 5870 5869 5868 5868 5867 5866 5865 5864 5864 5863 5862 5861 5860 5860 5859 5858 5857 5856 5856 5855 5855 5854 5853 5852 5852 5852 5851 5850 5850 5850 5850 5849
5897 5897 5898 5898 5898 5899 5899 5899 5900 5900 5900 5900 5900 5900 5900 5900 5899 5899 5899 5899 5899 5899 5898 5898 5898 5897 5897 5897 5896 5895 5895 5894 5893 5893 5892 5891 5890 5889 5887 5886 5885 5884 5883 5882 5881 5880 5879 5878 5877 5877 5876 5875 5874 5873 5872 5871 5869 5868 5867 5866 5866 5865 5864 5863 5863 5862 5861 5860 5859 5858 5857 5856 5855 5854 5854 5853 5853 5852 5851 5850 5850 5850 5849 5848 5848 5847 5847 5847
5895 5895 5895 5896 5896 5896 5897 5897 5898 5898 5898 5898 5898 5898 5898 5898 5898 5898 5898 5898 5897 5897 5897 5897 5896 5896 5896 5895 5895 5894 5894 5893 5893 5892 5891 5890 5889 5888 5887 5886 5885 5884 5883 5881 5880 5879 5878 5878 5877 5876 5875 5874 5873 5872 5871 5870 5868 5867 5866 5865 5865 5864 5863 5862 5861 5860 5859 5858 5857 5856 5855 5854 5853 5853 5852 5851 5851 5850 5849 5849 5849 5848 5847 5846 5846 5845 5845 5844
5892 5893 5893 5893 5894 5894 5894 5895 5895 5895 5896 5896 5896 5896 5896 5896 5896 5896 5896 5896 5896 5896 5895 5895 5895 5895 5894 5894 5893 5893 5893 5892 5891 5891 5890 5890 5889 5888 5887 5886 5884 5883 5882 5881 5880 5878 5877 5876 5876 5875 5874 5873 5873 5872 5871 5869 5868 5866 5865 5864 5863 5863 5862 5861 5860 5859 5858 5857 5856 5855 5854 5853 5852 5851 5850 5849 5848 5847 5847 5847 5847 5846 5845 5844 5844 5843 5843 5842
5890 5890 5890 5891 5891 5891 5892 5892 5892 5893 5893 5893 5894 5894 5894 5894 5894 5894 5894 5894 5894 5894 5894 5893 5893 5893 5893 5892 5892 5891 5891 5890 5890 5889 5889 5888 5888 5887 5886 5885 5884 5883 5882 5880 5879 5878 5877 5876 5874 5874 5873 5872 5871 5871 5870 5869 5867 5866 5865 5863 5863 5862 5861 5860 5859 5858 5857 5856 5855 5854 5852 5851 5850 5849 5848 5847 5846 5846 5845 5844 5844 5843 5843 5842 5841 5841 5840 5840
5887 5887 5887 5888 5888 5889 5889 5889 5890 5890 5890 5891 5891 5891 5892 5892 5892 5892 5892 5892 5892 5892 5892 5891 5891 5891 5891 5891 5890 5890 5889 5889 5888 5888 5887 5887 5886 5886 5885 5884 5883 5882 5881 5880 5878 5877 5876 5875 5874 5873 5872 5871 5870 5869 5868 5867 5866 5865 5864 5863 5862 5861 5859 5858 5857 5856 5855 5854 5853 5852 5851 5849 5849 5848 5847 5846 5845 5844 5843 5842 5842 5841 5840 5840 5839 5838 5838 5837
5884 5885 5885 5885 5885 5885 5886 5886 5886 5887 5887 5888 5888 5888 5889 5889 5889 5889 5889 5889 5889 5889 5889 5889 5889 5889 5889 5889 5888 5888 5887 5887 5887 5886 5885 5885 5884 5884 5883 5882 5881 5880 5879 5878 5877 5876 5875 5874 5873 5872 5871 5870 5869 5867 5867 5866 5865 5864 5862 5861 5860 5859 5858 5857 5855 5854 5853 5852 5851 5850 5849 5848 5847 5847 5846 5845 5843 5842 5842 5841 5840 5839 5838 5837 5836 5835 5835 5834
5882 5882 5882 5882 5882 5882 5883 5883 5883 5884 5884 5884 5885 5885 5885 5886 5886 5886 5886 5887 5887 5887 5887 5886 5886 5886 5886 5886 5886 5886 5885 5885 5884 5884 5883 5883 5882 5882 5881 5880 5880 5879 5878 5877 5876 5875 5874 5873 5872 5871 5870 5868 5867 5866 5865 5864 5863 5862 5861 5859 5858 5857 5856 5855 5854 5853 5852 5851 5850 5849 5847 5846 5845 5844 5843 5843 5842 5840 5840 5839 5838 5837 5836 5835 5834 5833 5832 5831
5879 5879 5880 5880 5880 5880 5880 5880 5880 5880 5881 5881 5881 5882 5882 5882 5883 5883 5883 5884 5884 5884 5884 5884 5884 5884 5884 5883 5883 5883 5883 5882 5882 5882 5881 5881 5880 5880 5879 5878 5878 5877 5876 5875 5874 5873 5872 5872 5871 5869 5868 5867 5866 5865 5863 5862 5861 5860 5859 5858 5856 5855 5854 5853 5852 5850 5850 5849 5848 5847 5845 5843 5842 5842 5841 5840 5839 5838 5837 5836 5835 5834 5833 5832 5831 5830 5829 5828
5876 5877 5877 5877 5877 5877 5877 5877 5877 5877 5878 5878 5878 5878 5879 5879 5879 5880 5880 5880 5881 5881 5881 5881 5881 5881 5881 5881 5881 5880 5880 5880 5879 5879 5879 5878 5878 5877 5877 5876 5875 5875 5874 5873 5872 5871 5870 5870 5869 5868 5867 5866 5864 5863 5862 5861 5859 5858 5857 5855 5854 5853 5852 5850 5849 5848 5847 5847 5846 5845 5844 5842 5840 5840 5839 5838 5837 5836 5836 5834 5833 5832 5830 5829 5828 5827 5826 5825
5873 5873 5873 5874 5874 5874 5874 5874 5874 5874 5874 5874 5875 5875 5875 5876 5876 5876 5876 5877 5877 5877 5878 5878 5878 5878 5878 5878 5878 5877 5877 5877 5876 5876 5876 5875 5875 5874 5874 5873 5873 5872 5871 5871 5870 5869 5868 5867 5867 5866 5865 5864 5863 5861 5860 5859 5858 5856 5855 5853 5852 5851 5849 5848 5847 5846 5844 5844 5844 5843 5843 5840 5837 5838 5837 5836 5835 5834 5833 5832 5830 5829 5827 5826 5825 5824 5823 5821
5869 5869 5870 5870 5870 5871 5871 5871 5871 5871 5871 5871 5871 5872 5872 5872 5872 5873 5873 5873 5873 5873 5874 5874 5874 5874 5875 5875 5874 5874 5874 5874 5873 5873 5873 5872 5872 5872 5871 5871 5870 5869 5869 5868 5868 5867 5866 5865 5864 5863 5862 5862 5861 5859 5858 5857 5856 5855 5853 5851 5850 5848 5847 5846 5844 5843 5842 5841 5841 5841 5841 5839 5835 5834 5835 5834 5833 5832 5831 5829 5827 5825 5824 5823 5821 5820 5819 5817
5866 5866 5866 5867 5867 5867 5867 5867 5867 5867 5867 5867 5867 5868 5869 5869 5869 5869 5869 5869 5869 5870 5870 5870 5870 5871 5871 5871 5871 5871 5871 5870 5870 5870 5870 5869 5869 5869 5868 5868 5867 5867 5866 5865 5865 5864 5863 5862 5861 5861 5860 5859 5858 5857 5856 5855 5854 5853 5851 5850 5848 5846 5844 5843 5842 5840 5839 5838 5837 5837 5839 5839 5834 5831 5831 5831 5830 5829 5828 5826 5824 5822 5821 5819 5817 5816 5815 5813
5862 5862 5863 5863 5863 5863 5864 5864 5864 5864 5864 5864 5864 5864 5865 5865 5865 5865 5866 5866 5866 5866 5866 5866 5867 5867 5868 5868 5868 5867 5867 5867 5867 5866 5866 5866 5866 5866 5866 5865 5864 5864 5863 5862 5862 5861 5860 5859 5859 5858 5857 5856 5855 5854 5853 5852 5851 5850 5849 5848 5846 5844 5842 5840 5838 5837 5835 5834 5834 5833 5835 5838 5833 5829 5828 5827 5827 5826 5825 5823 5821 5819 5817 5815 5814 5812 5811 5809
5858 5858 5859 5859 5859 5860 5860 5860 5860 5860 5860 5860 5860 5860 5861 5862 5861 5862 5862 5862 5862 5862 5862 5862 5863 5863 5864 5864 5864 5864 5863 5863 5863 5863 5863 5863 5863 5863 5863 5862 5861 5861 5860 5859 5859 5858 5857 5856 5856 5855 5854 5853 5852 5851 5850 5849 5848 5847 5846 5846 5844 5843 5841 5838 5835 5834 5832 5831 5831 5828 5829 5834 5832 5828 5826 5824 5823 5823 5822 5820 5817 5816 5814 5812 5810 5809 5807 5805
5854 5854 5854 5855 5855 5855 5856 5856 5856 5857 5857 5856 5856 5856 5857 5858 5858 5857 5858 5858 5858 5858 5858 5859 5858 5859 5860 5861 5860 5860 5860 5860 5860 5860 5860 5860 5860 5860 5859 5859 5858 5857 5857 5856 5855 5855 5854 5853 5852 5852 5851 5850 5849 5847 5847 5846 5845 5844 5843 5843 5842 5840 5838 5836 5833 5831 5829 5828 5828 5824 5824 5829 5830 5826 5823 5821 5819 5819 5819 5817 5814 5813 5811 5809 5807 5805 5804 5802
5850 5850 5850 5851 5851 5851 5851 5852 5852 5853 5853 5852 5852 5852 5852 5853 5854 5853 5854 5854 5854 5854 5854 5854 5854 5854 5855 5856 5857 5856 5855 5856 5856 5857 5857 5857 5857 5856 5855 5855 5855 5854 5853 5852 5852 5851 5850 5850 5849 5849 5848 5847 5845 5844 5843 5843 5842 5840 5839 5839 5838 5837 5835 5834 5831 5828 5826 5825 5824 5821 5819 5823 5826 5823 5820 5818 5816 5816 5816 5813 5811 5809 5807 5805 5803 5802 5800 5799
5846 5846 5846 5846 5847 5847 5847 5848 5848 5848 5849 5848 5848 5848 5847 5848 5849 5849 5849 5849 5849 5849 5849 5850 5850 5850 5851 5852 5852 5852 5851 5851 5853 5853 5854 5854 5853 5852 5852 5852 5851 5850 5850 5849 5848 5847 5846 5846 5846 5845 5845 5843 5841 5840 5839 5839 5838 5837 5835 5835 5835 5834 5832 5831 5827 5824 5822 5821 5821 5818 5814 5818 5821 5820 5818 5814 5812 5812 5812 5809 5807 5806 5803 5801 5799 5798 5797 5795
5841 5841 5842 5842 5842 5843 5843 5843 5844 5844 5845 5844 5843 5844 5843 5843 5844 5844 5845 5845 5845 5844 5844 5845 5845 5845 5847 5847 5847 5847 5847 5847 5849 5850 5850 5850 5849 5848 5848 5848 5847 5846 5846 5845 5844 5843 5842 5842 5842 5843 5841 5838 5837 5837 5836 5834 5833 5832 5831 5830 5830 5829 5829 5828 5823 5821 5818 5816 5818 5815 5810 5812 5816 5816 5814 5811 5809 5809 5807 5805 5803 5802 5799 5797 5795 5794 5792 5791
5837 5837 5837 5838 5838 5838 5838 5839 5839 5839 5840 5840 5839 5839 5839 5839 5839 5839 5840 5840 5840 5839 5840 5840 5840 5841 5841 5842 5842 5842 5842 5843 5845 5846 5846 5845 5845 5844 5844 5843 5843 5842 5842 5841 5839 5839 5838 5837 5839 5839 5836 5834 5834 5833 5832 5830 5829 5828 5826 5826 5825 5824 5824 5824 5820 5817 5815 5811 5813 5812 5807 5809 5811 5810 5810 5807 5806 5805 5802 5801 5800 5797 5795 5793 5791 5790 5788 5786
5832 5832 5833 5833 5833 5834 5834 5834 5834 5834 5835 5836 5835 5834 5834 5834 5833 5834 5834 5834 5835 5834 5835 5834 5834 5836 5837 5837 5837 5837 5838 5839 5841 5842 5842 5841 5840 5839 5839 5839 5838 5838 5837 5836 5835 5835 5834 5834 5836 5834 5831 5831 5830 5828 5828 5826 5824 5823 5822 5821 5821 5820 5818 5818 5816 5813 5810 5805 5807 5807 5802 5805 5807 5805 5805 5803 5802 5802 5798 5797 5796 5793 5790 5789 5787 5786 5783 5781
5827 5827 5828 5828 5829 5829 5829 5829 5829 5830 5830 5830 5831 5830 5830 5829 5828 5828 5828 5828 5830 5829 5829 5829 5829 5830 5832 5831 5832 5833 5834 5835 5837 5837 5837 5836 5835 5834 5834 5834 5833 5833 5832 5831 5830 5830 5828 5830 5832 5830 5827 5827 5825 5824 5823 5822 5820 5818 5817 5816 5816 5815 5812 5812 5811 5808 5805 5800 5800 5800 5796 5799 5803 5801 5801 5800 5798 5798 5795 5794 5793 5789 5786 5785 5784 5782 5779 5776
5821 5822 5822 5822 5824 5824 5823 5824 5825 5825 5825 5825 5826 5825 5825 5824 5823 5823 5821 5820 5823 5825 5823 5824 5824 5825 5826 5827 5827 5828 5829 5831 5832 5832 5832 5831 5830 5829 5828 5829 5828 5827 5827 5827 5825 5823 5824 5826 5827 5825 5824 5822 5821 5820 5819 5818 5816 5814 5812 5811 5811 5811 5807 5805 5805 5803 5801 5796 5794 5793 5788 5791 5796 5795 5798 5798 5793 5793 5793 5791 5789 5785 5783 5782 5781 5778 5775 5771
5815 5817 5817 5817 5819 5818 5818 5819 5819 5820 5820 5820 5820 5820 5820 5819 5818 5818 5816 5812 5813 5819 5820 5818 5819 5820 5821 5822 5823 5824 5825 5826 5827 5827 5827 5826 5825 5824 5823 5823 5822 5822 5823 5821 5819 5818 5819 5821 5821 5821 5819 5817 5816 5815 5815 5813 5811 5808 5808 5808 5806 5805 5802 5799 5798 5796 5795 5792 5789 5787 5781 5781 5785 5786 5791 5796 5791 5787 5788 5787 5784 5782 5781 5779 5777 5775 5771 5767
5810 5811 5811 5812 5813 5812 5812 5813 5814 5814 5815 5814 5815 5815 5815 5814 5814 5813 5811 5805 5802 5811 5816 5814 5814 5816 5817 5818 5819 5820 5820 5820 5822 5823 5822 5821 5820 5818 5818 5817 5816 5817 5818 5816 5814 5813 5815 5817 5816 5815 5814 5813 5811 5811 5811 5808 5804 5803 5803 5804 5802 5799 5798 5795 5793 5790 5787 5786 5784 5783 5779 5772 5773 5776 5779 5786 5788 5783 5781 5781 5779 5778 5777 5776 5773 5770 5766 5762
5804 5805 5806 5806 5807 5807 5806 5807 5808 5808 5809 5809 5809 5810 5809 5809 5809 5807 5806 5798 5792 5800 5808 5808 5809 5812 5814 5815 5815 5816 5815 5815 5818 5817 5816 5816 5814 5813 5812 5812 5812 5812 5812 5810 5808 5808 5811 5813 5810 5810 5808 5807 5806 5806 5806 5803 5799 5797 5798 5800 5797 5794 5793 5790 5788 5785 5781 5779 5777 5779 5780 5767 5760 5767 5772 5776 5781 5781 5777 5774 5773 5773 5772 5770 5767 5764 5760 5756
5798 5799 5800 5801 5802 5801 5800 5801 5802 5802 5803 5804 5803 5804 5804 5804 5803 5803 5800 5790 5783 5789 5797 5801 5806 5808 5810 5812 5812 5812 5810 5811 5813 5812 5811 5810 5809 5808 5807 5808 5808 5807 5806 5804 5802 5803 5807 5807 5806 5805 5802 5801 5802 5802 5800 5797 5794 5792 5793 5794 5792 5790 5788 5784 5783 5780 5777 5774 5769 5774 5779 5765 5751 5758 5766 5767 5773 5777 5774 5770 5767 5767 5766 5764 5761 5757 5753 5750
5792 5793 5793 5795 5796 5795 5794 5795 5795 5796 5797 5797 5798 5798 5797 5798 5798 5798 5795 5781 5772 5779 5788 5795 5800 5803 5806 5808 5808 5808 5806 5806 5807 5806 5807 5806 5804 5803 5802 5803 5803 5801 5801 5799 5797 5799 5801 5800 5800 5799 5797 5797 5797 5796 5794 5792 5790 5788 5788 5787 5786 5785 5782 5779 5777 5774 5774 5768 5763 5771 5776 5763 5749 5750 5758 5760 5765 5771 5770 5766 5763 5762 5760 5758 5755 5751 5747 5743
5786 5787 5788 5789 5790 5789 5788 5788 5789 5790 5791 5791 5792 5792 5792 5793 5791 5792 5786 5770 5763 5774 5782 5787 5793 5797 5801 5803 5803 5802 5801 5800 5800 5800 5801 5800 5798 5798 5798 5797 5797 5796 5796 5794 5793 5795 5795 5794 5794 5793 5793 5793 5791 5790 5788 5787 5786 5784 5784 5781 5780 5778 5775 5773 5770 5769 5769 5761 5759 5767 5768 5759 5746 5742 5751 5756 5758 5762 5763 5760 5759 5757 5755 5753 5750 5746 5741 5738
5779 5780 5782 5783 5784 5783 5781 5782 5782 5783 5784 5785 5785 5786 5786 5786 5786 5784 5772 5758 5761 5773 5777 5780 5786 5791 5795 5796 5796 5796 5795 5795 5794 5794 5793 5793 5792 5792 5792 5792 5791 5790 5790 5789 5789 5790 5789 5788 5788 5787 5787 5787 5786 5785 5783 5782 5781 5780 5778 5775 5774 5771 5768 5767 5765 5765 5762 5754 5756 5761 5760 5755 5741 5734 5745 5751 5750 5754 5756 5754 5754 5753 5750 5748 5745 5741 5736 5732
5772 5774 5775 5777 5778 5777 5776 5776 5776 5776 5777 5777 5778 5779 5779 5779 5779 5771 5755 5753 5764 5770 5772 5776 5779 5784 5787 5788 5789 5789 5789 5789 5788 5787 5786 5786 5785 5785 5785 5786 5785 5784 5783 5783 5784 5784 5783 5782 5782 5781 5781 5781 5780 5779 5778 5777 5775 5774 5772 5770 5768 5764 5762 5760 5759 5760 5755 5748 5751 5754 5752 5748 5735 5731 5742 5744 5741 5745 5748 5748 5748 5746 5744 5742 5740 5736 5731 5726
5766 5767 5768 5770 5771 5771 5770 5769 5769 5770 5770 5771 5772 5772 5772 5771 5766 5755 5747 5755 5763 5763 5768 5774 5775 5776 5778 5779 5782 5783 5782 5782 5781 5781 5780 5779 5778 5778 5779 5779 5778 5778 5776 5776 5777 5776 5776 5776 5775 5775 5775 5775 5774 5773 5771 5770 5769 5768 5766 5764 5762 5758 5756 5755 5753 5753 5748 5744 5747 5747 5744 5737 5729 5731 5739 5738 5734 5736 5740 5743 5742 5740 5738 5736 5734 5730 5725 5720
5759 5760 5761 5762 5764 5764 5763 5762 5762 5763 5763 5765 5764 5764 5765 5760 5749 5743 5747 5755 5758 5759 5765 5769 5768 5769 5770 5771 5774 5775 5775 5775 5774 5774 5774 5773 5772 5772 5772 5772 5772 5771 5770 5770 5769 5768 5768 5769 5769 5769 5770 5769 5767 5766 5765 5763 5763 5761 5759 5758 5755 5753 5751 5749 5748 5744 5740 5740 5741 5740 5735 5727 5724 5729 5732 5729 5727 5729 5735 5739 5736 5734 5733 5730 5728 5724 5718 5714
5752 5753 5754 5755 5757 5757 5756 5755 5755 5755 5756 5756 5756 5757 5756 5746 5736 5738 5746 5753 5756 5758 5760 5760 5761 5763 5763 5763 5764 5766 5768 5768 5768 5768 5767 5766 5765 5765 5766 5766 5766 5765 5764 5763 5761 5761 5761 5761 5762 5763 5762 5762 5761 5760 5758 5757 5755 5753 5753 5751 5749 5750 5748 5744 5742 5738 5734 5736 5734 5731 5728 5722 5722 5724 5722 5720 5719 5722 5730 5732 5729 5727 5725 5722 5720 5716 5711 5707
5745 5746 5747 5749 5750 5749 5748 5747 5747 5747 5747 5747 5748 5748 5742 5734 5732 5737 5743 5748 5752 5753 5753 5754 5755 5755 5755 5755 5756 5758 5759 5759 5761 5761 5760 5759 5759 5759 5760 5760 5760 5760 5759 5756 5755 5756 5754 5752 5755 5755 5753 5754 5754 5753 5753 5750 5748 5746 5746 5744 5743 5745 5743 5737 5735 5733 5731 5730 5727 5725 5721 5718 5720 5718 5714 5714 5714 5718 5725 5725 5721 5720 5717 5714 5711 5708 5703 5700
5738 5739 5739 5741 5743 5741 5739 5739 5739 5738 5738 5738 5738 5735 5732 5731 5733 5736 5738 5741 5744 5747 5747 5748 5748 5747 5747 5747 5749 5751 5752 5752 5752 5752 5751 5752 5752 5752 5752 5753 5755 5754 5753 5751 5750 5749 5747 5746 5747 5745 5745 5746 5746 5747 5747 5743 5741 5740 5740 5739 5739 5738 5735 5730 5728 5729 5727 5722 5721 5719 5713 5713 5715 5708 5705 5710 5711 5714 5719 5717 5714 5712 5709 5706 5704 5701 5697 5692
5730 5731 5732 5734 5735 5732 5730 5731 5731 5730 5729 5728 5726 5726 5727 5728 5730 5731 5732 5734 5737 5740 5740 5739 5740 5740 5740 5740 5742 5745 5745 5744 5744 5743 5744 5744 5743 5744 5745 5747 5748 5748 5747 5745 5741 5740 5739 5739 5740 5739 5736 5738 5739 5739 5737 5735 5734 5734 5734 5734 5732 5728 5727 5725 5721 5721 5719 5714 5713 5714 5709 5706 5705 5699 5699 5705 5707 5709 5710 5707 5705 5703 5701 5699 5697 5693 5689 5684
5721 5722 5723 5728 5726 5722 5721 5721 5721 5721 5720 5718 5718 5720 5721 5722 5725 5727 5727 5728 5730 5732 5732 5731 5732 5732 5733 5734 5735 5736 5737 5737 5737 5736 5736 5736 5734 5735 5738 5739 5740 5741 5741 5738 5733 5732 5731 5729 5732 5733 5730 5731 5732 5729 5727 5728 5728 5726 5726 5726 5723 5720 5719 5719 5716 5713 5711 5706 5703 5707 5706 5698 5693 5693 5696 5700 5704 5704 5702 5699 5696 5694 5693 5692 5689 5685 5680 5676
5712 5711 5715 5722 5718 5711 5711 5710 5709 5711 5709 5708 5712 5714 5715 5716 5719 5721 5722 5723 5724 5723 5722 5723 5725 5724 5724 5726 5727 5728 5728 5728 5729 5729 5728 5728 5726 5727 5730 5730 5731 5734 5734 5731 5726 5726 5724 5720 5722 5725 5724 5724 5723 5721 5721 5722 5720 5717 5716 5715 5714 5712 5711 5711 5709 5706 5703 5700 5697 5698 5697 5689 5684 5688 5692 5697 5701 5698 5695 5694 5690 5687 5687 5684 5681 5678 5673 5670
5702 5700 5705 5713 5708 5701 5701 5698 5697 5699 5697 5701 5706 5707 5707 5709 5712 5714 5716 5716 5715 5714 5714 5717 5718 5716 5717 5718 5718 5720 5720 5719 5721 5721 5719 5720 5719 5719 5722 5723 5724 5726 5725 5722 5719 5718 5716 5712 5712 5716 5717 5714 5714 5715 5714 5713 5711 5708 5707 5706 5706 5705 5704 5701 5699 5698 5696 5694 5692 5689 5685 5681 5678 5681 5688 5692 5693 5690 5688 5687 5684 5682 5680 5676 5673 5670 5667 5665
5692 5688 5695 5702 5696 5692 5691 5686 5687 5689 5688 5693 5698 5698 5698 5701 5705 5708 5708 5707 5706 5705 5706 5708 5708 5708 5710 5710 5711 5713 5712 5710 5712 5711 5709 5711 5711 5712 5715 5716 5716 5717 5716 5713 5711 5710 5707 5703 5703 5706 5707 5706 5707 5707 5704 5702 5701 5699 5698 5699 5700 5700 5698 5692 5690 5691 5689 5685 5683 5679 5674 5673 5672 5677 5686 5687 5683 5682 5681 5679 5677 5675 5671 5668 5666 5663 5660 5658
5680 5680 5687 5688 5683 5682 5678 5674 5679 5681 5678 5683 5689 5690 5692 5694 5697 5698 5699 5698 5697 5696 5698 5699 5700 5701 5702 5703 5704 5704 5703 5701 5702 5701 5699 5701 5703 5705 5709 5709 5707 5707 5705 5703 5702 5702 5698 5694 5693 5695 5698 5700 5699 5698 5695 5692 5691 5690 5690 5693 5693 5692 5690 5685 5683 5683 5681 5676 5672 5668 5663 5661 5665 5676 5683 5680 5677 5677 5675 5673 5670 5666 5662 5660 5658 5655 5653 5651
5670 5673 5676 5674 5673 5672 5666 5664 5670 5670 5668 5676 5681 5682 5683 5684 5686 5688 5690 5690 5688 5689 5689 5690 5692 5693 5694 5695 5695 5695 5695 5692 5691 5691 5690 5692 5696 5699 5701 5701 5697 5696 5696 5695 5694 5693 5688 5683 5683 5683 5687 5690 5689 5688 5685 5682 5682 5683 5685 5686 5684 5682 5682 5679 5674 5672 5669 5665 5661 5658 5652 5650 5661 5674 5675 5671 5671 5671 5668 5666 5663 5658 5655 5653 5650 5648 5646 5643
5662 5663 5664 5664 5663 5659 5655 5657 5661 5660 5663 5670 5671 5671 5673 5673 5676 5680 5680 5680 5681 5681 5681 5680 5682 5683 5684 5687 5686 5687 5686 5682 5680 5682 5684 5686 5689 5691 5691 5690 5687 5687 5687 5686 5684 5682 5677 5673 5673 5672 5674 5677 5677 5676 5674 5674 5676 5676 5677 5676 5674 5674 5674 5669 5666 5662 5656 5651 5651 5649 5641 5642 5659 5668 5663 5662 5664 5663 5662 5658 5653 5650 5648 5645 5643 5640 5638 5635
5651 5649 5650 5654 5652 5646 5647 5653 5654 5652 5656 5659 5658 5661 5663 5662 5667 5672 5672 5672 5673 5673 5670 5669 5671 5673 5676 5677 5677 5677 5676 5673 5672 5674 5677 5679 5679 5680 5680 5678 5679 5679 5678 5677 5674 5671 5667 5664 5664 5662 5660 5662 5665 5667 5666 5667 5668 5666 5666 5666 5666 5667 5666 5661 5659 5653 5641 5637 5641 5640 5632 5637 5654 5660 5654 5656 5658 5656 5655 5649 5643 5643 5641 5637 5635 5633 5630 5628
5638 5635 5637 5642 5639 5635 5639 5647 5645 5642 5647 5649 5648 5651 5653 5654 5660 5664 5663 5662 5663 5663 5660 5659 5662 5664 5665 5666 5666 5666 5667 5667 5666 5666 5670 5672 5669 5669 5668 5668 5671 5670 5668 5667 5664 5659 5655 5653 5654 5653 5649 5649 5655 5660 5660 5656 5655 5656 5656 5657 5658 5658 5658 5655 5650 5641 5633 5628 5628 5634 5632 5631 5642 5649 5648 5650 5652 5649 5645 5640 5636 5635 5632 5629 5627 5625 5623 5620
5624 5623 5627 5631 5627 5623 5629 5636 5634 5634 5639 5638 5637 5642 5646 5647 5651 5652 5651 5652 5653 5652 5650 5651 5653 5653 5655 5658 5657 5657 5658 5659 5657 5659 5664 5664 5661 5659 5658 5658 5659 5659 5659 5658 5653 5648 5642 5639 5643 5644 5640 5641 5646 5652 5651 5645 5644 5647 5646 5647 5651 5650 5649 5646 5637 5634 5634 5621 5612 5626 5633 5624 5627 5638 5641 5643 5645 5640 5635 5633 5631 5627 5623 5621 5619 5617 5616 5612
5613 5612 5617 5622 5616 5610 5616 5624 5626 5626 5628 5626 5625 5630 5634 5636 5639 5640 5641 5643 5643 5642 5641 5642 5645 5647 5649 5651 5649 5646 5649 5649 5648 5651 5654 5653 5651 5649 5647 5648 5648 5648 5649 5645 5642 5639 5630 5628 5636 5636 5631 5633 5638 5641 5640 5634 5634 5638 5637 5638 5643 5642 5638 5634 5628 5629 5632 5616 5604 5616 5622 5615 5619 5629 5632 5635 5635 5629 5626 5626 5623 5618 5614 5613 5611 5610 5608 5604
5603 5602 5607 5610 5604 5601 5606 5614 5616 5613 5613 5615 5614 5615 5621 5625 5629 5632 5633 5632 5630 5632 5634 5634 5640 5643 5642 5642 5640 5636 5639 5642 5640 5643 5644 5640 5639 5638 5637 5639 5639 5638 5637 5634 5632 5629 5621 5620 5629 5628 5621 5623 5629 5631 5629 5624 5624 5627 5627 5631 5635 5632 5627 5625 5623 5626 5626 5613 5606 5611 5608 5604 5614 5621 5622 5625 5623 5618 5616 5616 5613 5610 5607 5604 5603 5601 5598 5596
5593 5593 5598 5597 5592 5593 5597 5601 5601 5597 5599 5603 5600 5604 5612 5615 5619 5624 5623 5621 5622 5625 5626 5627 5633 5636 5633 5632 5629 5625 5631 5636 5632 5633 5633 5627 5626 5627 5627 5628 5629 5627 5626 5625 5623 5620 5614 5613 5619 5619 5608 5609 5621 5624 5617 5613 5613 5613 5616 5623 5627 5622 5618 5620 5621 5621 5617 5607 5606 5607 5598 5596 5610 5615 5610 5610 5611 5608 5606 5603 5602 5600 5598 5595 5595 5593 5589 5587
5584 5585 5588 5583 5577 5581 5585 5587 5588 5584 5585 5588 5590 5597 5604 5604 5611 5617 5612 5611 5614 5615 5616 5619 5624 5625 5621 5618 5617 5619 5627 5628 5622 5623 5623 5616 5613 5615 5615 5616 5619 5617 5617 5618 5615 5611 5608 5605 5610 5609 5596 5597 5615 5616 5605 5604 5602 5597 5603 5615 5618 5615 5614 5616 5616 5611 5605 5600 5600 5600 5592 5593 5606 5608 5599 5598 5600 5596 5593 5593 5591 5589 5588 5586 5586 5584 5580 5577
5576 5573 5575 5572 5565 5566 5571 5574 5574 5570 5570 5577 5584 5590 5591 5593 5603 5606 5597 5597 5604 5606 5606 5609 5613 5613 5607 5605 5610 5617 5619 5614 5609 5610 5609 5604 5602 5604 5604 5605 5607 5607 5609 5610 5607 5604 5601 5597 5600 5599 5585 5586 5603 5603 5595 5593 5585 5582 5596 5608 5611 5611 5609 5606 5603 5599 5597 5593 5589 5588 5588 5591 5598 5596 5591 5592 5591 5583 5580 5582 5579 5576 5577 5578 5577 5574 5570 5567